Sault Ste Marie, MI

6:24 PM EDT on October 19, 2017 (GMT -0400)
Sault Ste Marie Municipal / Sanderson Field

Weather History for KANJ - May, 2012

Change the Weather History Date:

Saturday, May 19, 2012

  Actual Average Record
Temperature  
Mean Temperature 66 °F 53 °F  
Max Temperature 86 °F 64 °F 90 °F (1911)
Min Temperature 46 °F 42 °F 23 °F (1976)
Degree Days  
Heating Degree Days 0 12  
Month to date heating degree days 219 284  
Since 1 July heating degree days 6929 8353  
Cooling Degree Days 1 0  
Month to date cooling degree days 1 0  
Year to date cooling degree days 3 0  
Growing Degree Days 16 (Base 50)    
Moisture  
Dew Point 42 °F    
Average Humidity 47    
Maximum Humidity 71    
Minimum Humidity 23    
Precipitation  
Precipitation 0.00 in 0.09 in 0.93 in (1918)
Month to date precipitation 0.18 1.51  
Year to date precipitation 7.89 9.38  
Sea Level Pressure  
Sea Level Pressure 30.03 in    
Wind  
Wind Speed 7 mph (SE)    
Max Wind Speed 17 mph    
Max Gust Speed 24 mph    
Visibility 10 miles    
Events      
T = Trace of Precipitation, MM = Missing Value Source: NWS Daily Summary

Daily Weather History Graph

Daily Weather History Graph

Search for Another Location

Airport or City:

Trip Planner

Search our weather history database for the weather conditions in past years. The results will help you decide how hot, cold, wet, or windy it might be!

Date:

Astronomy

May. 19, 2012 Rise Set
Actual Time 5:58 AM EDT 9:09 PM EDT
Civil Twilight 5:22 AM EDT 9:46 PM EDT
Nautical Twilight 4:35 AM EDT 10:33 PM EDT
Astronomical Twilight 3:37 AM EDT 11:32 PM EDT
Moon 5:04 AM EDT 8:12 PM EDT
Length of Visible Light 16h 23m
Length of Day
15h 11m
Waning Crescent, 2% of the Moon is Illuminated
May 19
Waning Crescent
May 20
New
May 28
First Quarter
Jun 4
Full
Jun 11
Last Quarter

Hourly Weather History & Observations

Time (EDT) Temp. Dew Point Humidity Pressure Visibility Wind Dir Wind Speed Gust Speed Precip Events Conditions
12:55 AM 52.0 °F 39.9 °F 63% 30.05 in 10.0 mi East 4.6 mph - N/A   Clear
1:55 AM 53.1 °F 39.0 °F 59% 30.05 in 10.0 mi ESE 4.6 mph - N/A   Clear
2:55 AM 52.0 °F 37.9 °F 59% 30.05 in 10.0 mi ESE 3.5 mph - N/A   Clear
3:55 AM 51.1 °F 37.0 °F 59% 30.04 in 10.0 mi East 4.6 mph - N/A   Clear
4:55 AM 48.0 °F 37.9 °F 68% 30.04 in 10.0 mi East 4.6 mph - N/A   Clear
5:55 AM 46.9 °F 37.9 °F 71% 30.04 in 10.0 mi East 4.6 mph - N/A   Clear
6:55 AM 48.9 °F 37.9 °F 66% 30.05 in 10.0 mi ENE 4.6 mph - N/A   Clear
7:55 AM 53.1 °F 39.0 °F 59% 30.06 in 10.0 mi East 5.8 mph - N/A   Clear
8:55 AM 57.0 °F 41.0 °F 55% 30.06 in 10.0 mi East 3.5 mph - N/A   Clear
9:55 AM 62.1 °F 44.1 °F 52% 30.07 in 10.0 mi Calm Calm - N/A   Clear
10:55 AM 68.0 °F 46.9 °F 47% 30.06 in 10.0 mi SE 4.6 mph - N/A   Clear
11:55 AM 75.0 °F 50.0 °F 41% 30.05 in 10.0 mi Variable 5.8 mph - N/A   Clear
12:55 PM 82.0 °F 48.0 °F 30% 30.04 in 3.0 mi SSE 6.9 mph - N/A   Haze
1:55 PM 84.0 °F 46.0 °F 26% 30.02 in 10.0 mi South 12.7 mph 18.4 mph N/A   Clear
2:55 PM 84.9 °F 44.1 °F 24% 30.01 in 10.0 mi South 9.2 mph 19.6 mph N/A   Clear
3:55 PM 86.0 °F 48.0 °F 27% 30.01 in 10.0 mi South 18.4 mph 23.0 mph N/A   Clear
4:55 PM 84.9 °F 48.0 °F 28% 30.00 in 10.0 mi South 12.7 mph - N/A   Clear
5:55 PM 82.9 °F 46.9 °F 28% 30.01 in 10.0 mi SSE 12.7 mph - N/A   Clear
6:55 PM 80.1 °F 39.0 °F 23% 30.01 in 10.0 mi SE 13.8 mph - N/A   Clear
7:55 PM 75.0 °F 43.0 °F 32% 30.00 in 10.0 mi ESE 8.1 mph - N/A   Clear
8:55 PM 70.0 °F 41.0 °F 35% 30.01 in 10.0 mi SSE 5.8 mph - N/A   Clear
9:55 PM 64.9 °F 39.9 °F 40% 30.03 in 10.0 mi SE 4.6 mph - N/A   Clear
10:55 PM 62.1 °F 41.0 °F 46% 30.04 in 10.0 mi ESE 3.5 mph - N/A   Clear
11:55 PM 61.0 °F 42.1 °F 50% 30.03 in 10.0 mi East 4.6 mph - N/A   Clear